Location: Unspecified
(0.0000°N, 0.0000°E)
Time: 02:24:28
(UTC+00:00)

Transit 2A - Pass Details

Date: 21 November 2019
Orbit: 592 x 967 km, 66.7° (Epoch: 03 July)

Event Time Altitude Azimuth Distance (km) Brightness Sun altitude
Rises 21:21:25 0° 356° (N) 2,941 - -49.4°
Reaches altitude 10° 21:23:44 10° 4° (N) 2,081 - -49.9°
Maximum altitude 21:28:06 37° 72° (ENE) 1,097 - -50.8°
Drops below altitude 10° 21:32:54 10° 138° (SE) 2,305 - -51.8°
Sets 21:35:35 0° 146° (SE) 3,303 - -52.4°
